Regional Weather Roundup
Issued by NWS Goodland, KS

Home | Current Version | Previous Version | Graphics & Text | Print | Product List | Glossary On
Versions: 1 2 3 4 5 6 7 8 9 10 11 12 13 14 15 16 17 18 19 20 21 22 23 24 25 26 27 28 29 30 31 32 33 34 35 36 37 38 39 40 41 42 43 44 45 46 47 48 49 50
000
ASUS43 KGLD 111459
RWRGLD

GOODLAND FORECAST AREA HOURLY WEATHER ROUNDUP
NATIONAL WEATHER SERVICE GOODLAND KS
800 AM MST THU FEB 11 2016

...OFFICIAL OBSERVATIONS...

CITY           SKY/WX    TMP DP  RH WIND       PRES   REMARKS
GOODLAND KS    CLOUDY    35  24  64 SW10      30.15R
HILL CITY KS   CLOUDY    28  26  92 S5        30.22S FOG
IMPERIAL NEB   CLOUDY    28  23  81 SW6       30.11F
MCCOOK NEB     FOG       25  24  96 S8        30.16F VSB<1/4
AKRON CO       CLOUDY    39  21  48 SW14      30.12S
BURLINGTON CO  CLOUDY    33  23  66 W9        30.16R
LIMON CO       CLOUDY    24  16  71 N7        30.18S
$$

...UNOFFICIAL OBSERVATIONS...

CITY           SKY/WX    TMP DP  RH WIND       PRES   REMARKS
GOVE KS          N/A     27  32 100 MISG        N/A
LENORA KS        N/A     27  32 100 MISG        N/A
NORTON KS      CLOUDY    28  25  86 S6        30.20R FOG
SHARON SPRINGS   N/A     33  29  86 SW5         N/A
KIT CARSON CO    N/A     31  24  76 MISG        N/A
YUMA CO          N/A     33  25  73 W5          N/A
$$



USA.gov is the U.S. government's official web portal to all federal, state and local government web resources and services.